星链-4564 (STARLINK-4564 )

导读

STARLINK-4564是美国SpaceX公司星链卫星互联网星座的成员,于2022年8月19日发射升空,属于星链V1.5批次卫星。它运行在近地轨道,配备相控阵通信天线与氪离子推进系统,可通过星间激光实现高速数据传输,为全球尤其是偏远地区提供低延迟、高带宽的宽带互联网接入服务。作为星链大规模组网的一员,它助力星链扩展全球覆盖能力,同时也遵循设计要求退役后再入大气层销毁,减少空间碎片。

基本信息
目录编号:
53560
目录名称:
STARLINK-4564
国际标识:
2022-101AK
轨道中心:
EARTH
卫星名称:
星链-4564
卫星全名:
星链-4564 (STARLINK-4564 )
卫星状态:
在轨 (已飞行1485 天)
发射日期:
2022-08-19 UTC
国别 :
美国 (US)
星等 :
--
该卫星已列入 空间交会检测服务 Space Conjunction Data Service (SCDS) ,当前飞行风险评估等级: 无高风险
轨道信息
数据来源 国际轨道数据
星历时间: 2026-09-12T09:44:22+0800
8小时前
查看轨道信息
半长轴: 6848.901km
偏心率: 0.000117
轨道倾角: 53.160°
近地点辐角 84.800°
升交点赤经 289.031°
平近点角 275.314°
近地点: 469.962km
远地点: 471.566km
周期: 94.014分钟
每日圈数: 15.31692
详细信息
固有亮度:
5
最大亮度:
2.5
卫星平台:
Starlink v1.5
覆盖范围:
全球
运营商:
太空探索技术公司
运营商所在国:
美国
制造商(研发单位):
太空探索技术公司
制造商所在国:
美国
使用方式:
暂无
卫星简介
星链(Starlink)计划是由太空探索技术公司(SpaceX)提出的一个巨型低轨卫星互联网星座项目,计划在2019年至2024年间在太空搭建由约1.2万颗卫星组成的“星链”网络,其中1584颗将部署在地球上空550千米处的近地轨道,并从2020年开始工作。该卫星仍在工作。
2D轨道图
3D轨道图
轨道高度分析图
轨道倾角分析图
轨道综合分析图
查看轨道综合分析图
交会数据列表
事件ID 空间交会对象 最接近时刻(TCA) 交会距离 交会风险概率(CRP) 交会风险指数(CRI) 操作
CDM_260913-191905-356006-904221
2026-09-13T
19:19:06+0000
2.361 km
极远距离
1.950787E-6 低风险 0.41
CDM_260913-075105-350805-356021
2026-09-13T
07:51:42+0000
2.728 km
极远距离
1.298642E-6 低风险 0.37
CDM_260913-152805-356006-774121
2026-09-13T
15:28:39+0000
2.915 km
极远距离
8.757853E-7 极低风险 0.34
与全量物体交会距离演化趋势
与全量物体交会风险概率演化趋势